Wind_Speed
6 8 8 8 7 9 11 13 17 14 12 11 17 19 18 18 21 17 16 15 12 13 17 25 33 36 35 36 37 40 38 40 38 38 37 32 31 28 25 23 22 22 22 21
6 7 6 14 13 13 11 14 12 12 9 19 12 34 22 25 25 20 18 21 22 11 9 10 25 32 34 38 41 40 39 41 44 42 39 30 35 31 28 25 24 24 24 23
4 2 12 13 13 17 14 14 13 17 19 16 19 28 18 24 24 22 22 20 22 19 14 9 14 29 33 37 39 40 44 44 45 42 39 28 31 27 27 27 26 26 26 24
3 5 11 13 9 11 14 3 17 21 15 5 10 12 19 8 15 22 26 18 18 12 9 9 12 21 31 37 38 42 43 43 43 45 42 38 34 26 29 36 32 29 27 26
4 9 15 8 7 10 7 10 13 15 17 16 20 9 16 10 20 27 13 15 11 11 11 11 12 24 33 36 39 40 41 42 41 44 45 41 32 28 29 35 32 30 29 27
8 7 3 7 13 10 12 12 18 14 6 10 16 15 12 17 21 17 9 17 13 13 14 15 20 26 32 37 40 41 42 42 42 44 45 43 36 33 32 36 36 34 31 30
7 2 5 4 14 7 13 4 4 5 4 7 3 11 25 16 14 12 14 12 11 13 17 18 18 14 26 34 38 39 42 41 43 44 43 45 40 39 40 40 37 37 36 34
6 7 9 11 12 9 16 3 4 6 10 12 10 12 10 11 18 24 26 26 22 14 10 14 15 14 25 34 38 41 43 42 44 43 43 45 41 41 39 40 38 39 38 38
5 5 23 15 10 3 5 4 8 10 18 10 8 20 23 27 26 18 20 15 13 10 13 15 15 16 27 33 40 43 42 43 45 44 42 41 43 40 40 42 41 39 39 39
5 13 9 9 7 3 7 6 7 5 7 6 8 13 12 18 27 18 18 23 27 20 9 12 12 13 25 33 40 43 44 47 46 44 43 43 43 42 38 41 41 41 40 39
5 3 14 4 5 17 9 5 5 8 6 6 9 7 13 18 20 15 8 10 9 6 8 8 9 9 25 31 37 42 42 43 43 42 40 39 38 40 39 40 42 43 41 41
4 4 4 25 21 8 3 6 11 6 11 16 15 14 17 19 11 9 18 10 7 9 8 8 8 8 11 23 30 38 40 41 43 41 39 39 39 39 38 38 43 43 42 42
3 2 6 15 6 2 6 9 13 14 15 20 11 11 3 14 19 18 13 14 9 8 9 8 8 6 7 16 27 34 37 39 42 41 38 37 37 38 39 38 42 43 42 42
2 3 6 8 17 16 21 29 24 16 10 16 16 28 30 16 18 14 10 9 13 5 8 8 8 7 4 6 20 29 32 37 40 41 38 36 36 38 39 38 40 41 42 42
4 6 4 15 19 21 24 26 25 20 20 13 22 28 25 23 24 1 8 11 12 11 10 8 8 7 5 1 8 21 26 33 38 38 35 36 35 36 36 36 38 40 40 42
2 9 3 16 16 12 21 24 16 15 15 9 15 21 27 29 13 8 10 11 14 14 12 10 8 8 6 1 6 16 22 28 33 34 31 33 32 34 35 36 37 38 38 39
6 4 2 8 15 8 9 6 20 11 15 13 14 21 24 12 13 12 11 13 14 16 13 13 8 6 6 5 3 10 20 25 30 29 28 31 34 34 36 36 37 36 36 38
15 5 4 7 5 3 8 17 14 14 7 12 16 20 26 20 10 15 18 17 16 15 14 14 9 6 6 6 5 11 17 22 25 26 27 30 31 32 34 35 35 35 36 38
14 3 3 2 4 10 11 7 10 18 15 10 13 20 25 26 9 20 20 18 15 15 13 11 16 10 6 5 3 7 13 17 20 22 26 30 33 31 32 33 33 33 34 33
5 9 4 3 4 7 7 15 16 17 4 10 6 12 17 22 13 10 18 20 19 19 20 18 21 15 14 7 1 6 9 14 14 19 24 28 31 32 32 33 33 33 34 33
2 2 11 10 9 7 10 11 9 4 5 9 5 11 5 9 7 10 14 14 16 19 24 26 21 15 16 12 1 5 10 10 16 23 27 28 29 30 32 32 32 32 31 31
8 4 4 2 1 8 10 4 2 5 11 8 6 7 10 6 7 8 12 12 15 18 24 27 20 18 21 21 9 5 7 6 17 23 27 29 30 28 29 31 30 31 31 30
6 8 5 8 6 6 6 7 12 13 7 7 4 6 7 8 6 7 10 10 10 15 19 21 19 20 25 27 20 13 12 3 13 20 25 27 29 30 31 30 30 30 30 28
14 16 11 15 19 22 20 18 9 7 10 8 7 6 6 5 7 9 7 9 9 13 13 19 22 21 21 27 25 17 12 6 6 16 21 25 29 29 30 29 32 29 27 24
15 4 8 15 21 17 15 13 16 17 8 8 6 4 5 4 6 5 6 6 6 11 17 18 19 18 20 24 27 23 19 11 7 7 13 21 26 28 28 28 29 29 31 38
14 19 9 9 18 10 17 7 6 8 7 8 6 5 4 3 5 4 4 5 6 10 15 15 16 20 22 26 28 29 21 15 9 8 7 12 20 22 25 26 20 23 28 29
Wind_Direction
354 64 28 346 4 344 326 311 306 301 290 316 293 298 287 283 271 267 261 262 242 227 233 215 208 204 199 196 194 198 194 198 199 200 188 188 194 195 196 193 184 178 174 171
12 67 0 345 343 326 311 308 308 300 320 316 312 293 282 275 272 270 256 254 249 240 231 214 205 199 194 192 196 195 197 194 196 198 193 192 194 195 197 193 188 183 180 176
66 277 349 343 336 325 320 310 302 293 316 291 289 284 269 255 251 255 254 249 248 235 230 217 206 199 194 195 194 194 195 195 191 192 194 193 193 194 194 195 191 188 185 181
353 332 327 328 344 331 322 329 309 302 316 325 350 287 276 282 258 241 245 241 241 233 220 215 198 203 200 199 196 196 194 192 189 191 190 190 187 186 197 194 193 188 188 185
301 322 313 323 328 310 294 327 309 302 286 295 260 247 279 189 243 247 254 248 226 227 225 223 203 201 204 199 195 196 192 191 188 188 192 191 190 194 193 195 192 190 188 189
303 264 262 286 307 271 314 324 297 271 240 253 252 224 270 247 251 260 241 248 232 229 231 236 230 203 204 203 196 192 189 190 188 190 191 193 192 189 187 191 191 190 189 190
339 192 290 298 335 310 301 330 324 335 222 253 348 210 243 278 285 275 259 254 256 231 229 231 230 201 204 199 196 193 188 190 191 189 188 194 194 194 193 191 188 187 190 191
346 337 340 320 300 281 280 218 248 262 271 275 303 253 251 306 259 256 265 263 258 248 240 243 239 215 205 198 194 192 189 189 190 188 190 193 195 196 195 195 192 192 192 193
309 276 304 307 295 215 303 226 233 262 266 275 243 258 268 277 270 257 245 251 247 245 246 242 245 220 208 200 194 192 189 190 189 189 189 189 193 193 194 200 198 195 196 196
272 298 279 329 301 262 217 281 316 258 278 274 262 253 260 292 285 291 271 258 260 266 261 254 232 221 209 201 194 191 189 188 190 190 189 189 192 193 193 197 197 197 197 197
265 236 300 318 324 307 334 336 272 284 262 287 299 303 314 260 264 288 319 327 308 282 273 273 270 238 206 194 191 191 189 188 189 188 186 186 187 190 193 195 198 201 199 198
261 229 294 296 290 258 162 293 316 310 312 293 283 276 275 271 330 309 334 328 290 287 289 291 287 253 200 189 188 191 188 186 188 185 182 183 184 186 189 191 199 201 200 200
282 277 318 329 356 168 274 303 301 300 281 265 284 276 168 342 298 302 328 313 302 307 325 311 332 294 230 195 184 186 188 185 183 182 179 180 181 182 187 191 196 200 198 198
337 245 191 263 270 294 298 301 303 297 286 286 266 274 289 305 308 297 335 311 301 347 329 313 327 325 276 239 189 182 184 181 179 180 178 177 181 183 186 188 191 194 197 194
147 247 219 258 268 280 278 284 290 293 276 271 294 297 313 321 298 47 296 326 323 6 344 323 327 334 331 156 172 174 176 175 178 180 177 179 181 182 183 183 187 191 193 194
241 272 266 287 278 266 289 286 281 292 317 297 316 329 325 317 280 23 18 350 350 345 352 330 322 336 340 331 156 160 164 169 177 179 179 174 174 177 178 180 181 186 186 188
189 226 239 270 296 309 301 225 339 322 318 333 339 334 324 317 43 24 21 12 356 338 338 334 322 323 346 26 135 156 163 165 174 176 169 170 171 173 175 178 179 179 180 182
255 223 243 265 354 315 240 327 309 307 321 349 337 333 336 315 61 38 27 24 2 334 345 337 332 333 355 23 102 144 162 165 170 170 165 165 169 171 172 174 177 178 179 180
216 189 248 221 211 285 295 291 334 317 309 344 345 339 342 342 317 32 10 15 2 349 350 345 343 349 352 16 76 144 148 157 155 159 161 165 169 169 170 173 175 177 176 177
212 197 173 82 220 254 283 303 297 296 238 356 319 350 348 341 8 10 358 0 355 353 355 354 342 12 17 0 69 143 158 147 145 152 157 164 168 169 172 175 176 178 179 178
326 326 219 241 254 275 266 274 303 26 303 319 302 299 5 350 348 329 359 359 349 358 352 359 355 14 0 5 99 138 159 151 158 159 163 166 169 171 173 175 176 174 174 175
234 179 213 72 134 285 247 281 219 277 300 288 287 291 305 292 302 350 358 3 355 351 352 357 356 11 11 26 45 81 71 157 166 168 169 171 172 172 170 169 173 171 171 169
258 210 223 204 229 248 242 240 284 310 281 284 276 284 285 302 322 327 346 5 358 343 340 354 352 11 15 26 34 40 16 98 166 169 172 175 176 176 174 167 165 165 168 169
262 242 247 265 261 255 263 274 261 254 268 263 258 279 300 320 339 346 357 343 346 334 333 345 9 10 6 18 26 29 25 49 167 172 173 175 175 172 172 171 172 170 170 169
252 241 231 248 257 269 265 261 267 273 280 241 249 264 289 319 325 347 347 331 335 331 344 354 5 1 0 16 23 24 29 43 84 154 170 174 175 171 169 173 174 178 185 187
255 245 227 240 256 238 265 260 240 236 224 226 229 247 264 295 317 326 329 335 334 350 347 1 4 4 353 17 19 23 27 32 63 86 128 163 168 168 168 169 167 184 192 192
Height
827 833 849 847 841 840 837 829 822 810 800 797 776 768 757 747 739 736 732 729 725 724 716 718 720 724 730 735 740 745 750 753 761 767 771 775 778 783 787 789 791 794 796 798
837 842 843 838 837 838 835 832 823 805 795 794 783 758 760 748 733 725 722 716 711 715 712 713 713 717 721 725 730 736 743 746 752 760 766 769 772 779 783 787 789 792 794 797
845 843 837 839 839 832 831 834 828 821 809 802 787 749 732 718 719 715 707 703 700 701 703 707 708 709 713 717 721 728 733 738 744 752 761 766 773 778 782 784 786 789 792 795
845 841 842 839 838 834 828 824 823 820 822 817 794 768 721 716 708 704 693 696 697 697 695 696 701 703 705 709 715 719 726 732 738 743 751 757 761 765 770 775 781 785 790 793
849 844 839 839 836 833 827 825 821 818 816 813 798 799 703 705 704 687 694 692 693 692 690 689 691 694 697 702 706 713 720 726 732 735 740 749 757 762 766 772 778 782 787 791
848 841 839 835 835 831 823 826 818 808 810 806 782 783 719 704 695 691 688 682 682 682 681 679 679 684 687 692 697 703 710 718 724 729 733 740 749 755 761 768 773 778 783 787
846 839 836 831 836 830 827 834 862 857 813 795 760 770 716 700 692 687 683 680 676 673 670 670 671 675 678 681 688 695 701 709 717 721 727 734 741 747 754 760 766 771 777 782
872 884 841 830 840 838 828 828 834 831 798 773 759 744 706 693 688 685 670 673 670 669 666 663 662 666 667 670 677 683 690 698 706 712 719 727 735 741 748 755 760 765 770 775
874 853 836 832 827 826 825 825 807 811 800 796 767 726 704 698 682 676 668 665 665 662 659 657 655 655 657 660 664 671 680 689 696 704 713 720 727 735 741 748 755 761 767 772
879 857 834 824 821 815 819 812 810 795 779 763 739 731 710 693 672 671 664 657 647 650 653 648 647 645 646 648 654 663 670 676 687 697 703 711 719 727 735 743 749 755 762 768
867 874 840 830 832 827 820 817 813 795 782 762 746 727 700 684 670 672 671 664 657 656 653 649 641 637 636 639 645 652 661 670 679 688 697 706 713 722 729 736 743 750 757 764
860 877 856 837 816 813 816 816 811 808 794 781 766 735 690 685 684 685 668 665 664 659 651 644 639 631 631 633 638 644 652 661 670 681 691 699 706 715 723 731 738 745 752 759
869 887 877 852 817 812 821 811 809 808 798 776 767 727 681 695 693 679 668 666 658 652 647 643 636 630 629 629 631 637 645 652 663 674 684 693 701 708 717 725 732 739 747 755
861 871 870 867 841 829 825 802 804 806 798 771 750 721 695 697 684 674 667 666 662 646 648 646 639 633 629 629 628 632 640 647 655 667 676 685 694 702 711 719 727 734 742 749
863 873 872 846 835 829 823 812 802 798 778 764 739 724 714 710 697 676 677 671 664 651 649 647 642 636 632 630 631 633 638 643 651 661 670 679 690 699 707 715 722 731 738 745
869 851 861 848 825 826 815 802 790 777 762 759 746 732 723 707 682 680 677 676 669 662 653 649 644 640 636 634 634 635 638 643 651 658 668 677 686 695 702 711 718 727 734 741
854 860 865 844 828 838 834 788 773 771 766 766 754 743 728 695 685 685 680 675 677 671 662 655 648 643 639 637 637 638 640 644 650 658 666 674 682 691 698 707 715 722 730 738
835 850 839 837 861 871 798 770 766 764 760 768 756 749 736 720 697 690 683 679 681 683 667 657 650 644 643 641 641 642 645 646 651 657 664 672 681 688 695 703 711 719 726 733
820 841 852 841 888 805 783 772 768 765 755 764 758 748 733 714 697 687 692 688 689 683 670 665 655 649 645 644 645 645 648 649 652 657 663 670 678 686 692 700 707 715 722 730
814 818 836 898 851 837 777 766 760 752 756 748 752 746 739 725 705 707 705 695 691 686 677 667 661 654 650 648 646 649 651 651 654 657 662 669 676 682 689 697 704 712 719 726
866 869 820 819 811 809 776 762 758 770 770 749 749 745 739 739 734 723 713 704 701 694 685 676 670 662 657 652 649 650 653 654 656 659 663 669 675 681 687 695 702 709 717 724
826 850 854 864 863 815 764 762 764 759 751 746 744 743 742 737 731 723 715 710 706 698 692 683 678 670 663 657 654 654 655 656 658 660 664 669 674 680 686 693 700 707 714 722
805 797 803 794 785 764 759 757 751 749 749 744 741 739 738 734 729 725 717 711 712 709 703 694 686 675 671 665 660 658 659 658 659 662 665 669 674 679 684 691 698 705 711 718
784 781 786 781 762 757 752 749 750 746 744 740 736 734 733 731 728 723 721 717 715 712 707 698 688 682 679 672 667 666 664 661 661 663 665 669 673 678 684 690 696 702 709 716
776 778 773 764 753 750 748 745 743 739 738 736 733 732 730 730 727 725 722 720 718 714 708 701 693 690 688 681 677 671 665 663 664 666 667 670 673 678 684 689 694 700 705 708
769 765 764 755 737 745 736 736 735 735 734 732 732 731 728 727 726 724 722 721 720 716 711 704 702 699 695 685 680 677 673 671 668 669 671 673 675 679 683 688 695 700 705 710